Sexton Summit, OR

1:24 PM PDT on October 19, 2019 (GMT -0700)
Sexton Summit

Weather History for KSXT - August, 2019

Change the Weather History Date:

Saturday, August 10, 2019

  Actual Average Record
Temperature  
Mean Temperature 56 °F -  
Max Temperature 64 °F 76 °F 91 °F (1996)
Min Temperature 48 °F 53 °F 46 °F (2007)
Degree Days  
Heating Degree Days 10    
Growing Degree Days 6 (Base 50)    
Moisture  
Dew Point 51 °F    
Average Humidity 90    
Maximum Humidity 100    
Minimum Humidity 64    
Precipitation  
Precipitation 0.19 in - - ()
Sea Level Pressure  
Sea Level Pressure 30.01 in    
Wind  
Wind Speed 5 mph (South)    
Max Wind Speed 16 mph    
Max Gust Speed 23 mph    
Visibility 5 miles    
Events Fog , Rain    
Averages and records for this station are not official NWS values.
T = Trace of Precipitation, MM = Missing Value Source: NWS Daily Summary

Daily Weather History Graph

Daily Weather History Graph

Search for Another Location

Airport or City:

Astronomy

Aug. 10, 2019 Rise Set
Actual Time 6:14 AM PDT 8:22 PM PDT
Civil Twilight 5:43 AM PDT 8:53 PM PDT
Nautical Twilight 5:05 AM PDT 9:31 PM PDT
Astronomical Twilight 4:23 AM PDT 10:12 PM PDT
Moon 5:13 PM PDT (8/10) 1:53 AM PDT (8/10)
Length of Visible Light 15h 09m
Length of Day
14h 07m
Waxing Gibbous, 80% of the Moon is Illuminated
Aug 10
Waxing Gibbous
Aug 15
Full
Aug 23
Last Quarter
Aug 30
New
Sep 5
First Quarter

Hourly Weather History & Observations

Time (PDT) Temp. Dew Point Humidity Pressure Visibility Wind Dir Wind Speed Gust Speed Precip Events Conditions
12:21 AM 55.0 °F 52.0 °F 89% 30.01 in 10.0 mi ESE 3.5 mph - N/A   Overcast
12:59 AM 54.0 °F 53.1 °F 97% 30.00 in 1.8 mi SSE 8.1 mph - N/A   Mostly Cloudy
1:01 AM 54.0 °F 53.1 °F 97% 30.00 in 0.8 mi SSE 8.1 mph - N/A   Mostly Cloudy
1:56 AM 54.0 °F 53.1 °F 97% 29.88 in 10.0 mi SSW 4.6 mph - 0.00 in   Mostly Cloudy
2:13 AM 54.0 °F 53.1 °F 97% 29.99 in 0.2 mi West 3.5 mph - N/A Fog Fog
2:22 AM 53.1 °F 53.1 °F 100% 29.98 in 1.0 mi WNW 3.5 mph - N/A   Overcast
2:33 AM 53.1 °F 53.1 °F 100% 29.98 in 0.2 mi NNW 3.5 mph - N/A Fog Fog
2:56 AM 53.1 °F 53.1 °F 100% 29.91 in 0.2 mi SSE 3.5 mph - N/A Fog Fog
3:07 AM 53.1 °F 53.1 °F 100% 30.01 in 0.2 mi South 6.9 mph - 0.00 in Fog , Rain Light Rain
3:56 AM 50.0 °F 50.0 °F 100% 29.93 in 0.2 mi South 11.5 mph 19.6 mph 0.06 in Fog , Rain Rain
4:20 AM 50.0 °F 50.0 °F 100% 30.00 in 0.2 mi SSE 12.7 mph - 0.06 in Fog , Rain Rain
4:26 AM 50.0 °F 50.0 °F 100% 30.00 in 0.5 mi SSE 12.7 mph - 0.08 in Fog , Rain Rain
4:34 AM 48.9 °F 48.9 °F 100% 30.00 in 2.0 mi South 16.1 mph 23.0 mph 0.10 in Rain Rain
4:40 AM 48.2 °F 46.4 °F 93% 30.00 in 3.0 mi South 15.0 mph 23.0 mph N/A Rain Rain
5:13 AM 48.0 °F 46.9 °F 96% 29.99 in 3.0 mi ESE 8.1 mph 21.9 mph 0.07 in Rain Rain
5:37 AM 48.0 °F 46.9 °F 96% 29.99 in 1.2 mi South 12.7 mph 17.3 mph 0.10 in Rain Light Rain
5:56 AM 48.0 °F 48.0 °F 100% 29.93 in 0.8 mi South 9.2 mph - 0.10 in   Mostly Cloudy
6:56 AM 48.0 °F 46.9 °F 96% 29.94 in 10.0 mi SE 8.1 mph - N/A   Clear
7:26 AM 48.9 °F 48.0 °F 97% 30.01 in 10.0 mi SE 5.8 mph - N/A   Partly Cloudy
7:48 AM 50.0 °F 50.0 °F 100% 30.01 in 2.0 mi Calm Calm - N/A   Mostly Cloudy
7:52 AM 50.0 °F 50.0 °F 100% 30.01 in 1.0 mi Calm Calm - N/A   Mist
7:56 AM 48.9 °F 48.9 °F 100% 29.94 in 0.5 mi SE 4.6 mph - N/A Fog Fog
8:05 AM 51.1 °F 51.1 °F 100% 30.01 in 0.2 mi SE 5.8 mph - 0.00 in Fog , Rain Light Rain
8:21 AM 51.1 °F 50.0 °F 96% 30.01 in 9.0 mi ESE 5.8 mph - 0.00 in   Mostly Cloudy
8:29 AM 51.1 °F 50.0 °F 96% 30.02 in 10.0 mi Variable 3.5 mph - 0.00 in   Scattered Clouds
8:50 AM 51.8 °F 51.8 °F 100% 30.02 in 0.2 mi Variable 3.5 mph - 0.00 in Fog Fog
8:56 AM 51.1 °F 50.0 °F 96% 29.96 in 0.2 mi Calm Calm - 0.00 in Fog Fog
9:06 AM 52.0 °F 51.1 °F 97% 30.03 in 1.0 mi Variable 3.5 mph - N/A   Overcast
9:19 AM 52.0 °F 51.1 °F 97% 30.03 in 3.0 mi Variable 3.5 mph - N/A   Mostly Cloudy
9:56 AM 55.0 °F 52.0 °F 89% 29.95 in 10.0 mi Variable 3.5 mph - N/A   Mostly Cloudy
10:56 AM 55.0 °F 50.0 °F 83% 29.96 in 10.0 mi SSW 4.6 mph - N/A   Partly Cloudy
11:47 AM 57.9 °F 52.0 °F 81% 30.04 in 10.0 mi Calm Calm - N/A   Mostly Cloudy
11:56 AM 57.9 °F 51.1 °F 78% 29.95 in 10.0 mi Calm Calm - N/A   Scattered Clouds
12:56 PM 61.0 °F 48.9 °F 64% 29.95 in 10.0 mi Variable 3.5 mph - N/A   Scattered Clouds
1:28 PM 60.1 °F 52.0 °F 75% 30.04 in 10.0 mi NNW 3.5 mph - N/A   Mostly Cloudy
1:56 PM 63.0 °F 52.0 °F 67% 29.94 in 10.0 mi Calm Calm - N/A   Overcast
2:27 PM 61.0 °F 48.9 °F 64% 30.03 in 10.0 mi Calm Calm - N/A   Mostly Cloudy
2:36 PM 61.0 °F 50.0 °F 67% 30.03 in 10.0 mi WNW 3.5 mph - N/A   Mostly Cloudy
2:48 PM 61.0 °F 48.9 °F 64% 30.03 in 10.0 mi Variable 3.5 mph - N/A   Overcast
2:56 PM 60.1 °F 48.9 °F 67% 29.95 in 10.0 mi Variable 3.5 mph - N/A   Overcast
3:26 PM 60.1 °F 50.0 °F 69% 30.04 in 10.0 mi Variable 4.6 mph - N/A   Overcast
3:56 PM 57.9 °F 52.0 °F 81% 29.98 in 10.0 mi Variable 3.5 mph - 0.00 in Rain Light Rain
4:36 PM 62.1 °F 53.1 °F 72% 30.04 in 10.0 mi Calm Calm - 0.00 in   Overcast
4:56 PM 62.1 °F 52.0 °F 70% 29.96 in 10.0 mi Variable 3.5 mph - 0.00 in   Mostly Cloudy
5:56 PM 60.1 °F 50.0 °F 69% 29.99 in 10.0 mi Calm Calm - N/A   Mostly Cloudy
6:56 PM 55.0 °F 51.1 °F 86% 30.01 in 8.0 mi SSW 9.2 mph - 0.00 in Rain Light Rain
7:27 PM 53.1 °F 51.1 °F 93% 30.07 in 4.0 mi Variable 3.5 mph - 0.02 in Rain Light Rain
7:56 PM 53.1 °F 52.0 °F 96% 30.03 in 10.0 mi NW 6.9 mph - 0.03 in Rain Light Rain
8:25 PM 53.1 °F 50.0 °F 89% 30.09 in 10.0 mi Variable 3.5 mph - 0.00 in Rain Light Rain
9:08 PM 52.0 °F 52.0 °F 100% 30.10 in 9.0 mi Variable 3.5 mph - N/A   Overcast
9:36 PM 52.0 °F 52.0 °F 100% 30.11 in 1.8 mi NW 3.5 mph - N/A   Overcast
9:48 PM 52.0 °F 52.0 °F 100% 30.12 in 0.8 mi NW 3.5 mph - N/A   Mist
9:56 PM 52.0 °F 52.0 °F 100% 30.05 in 0.5 mi NW 3.5 mph - N/A Fog Fog
10:11 PM 51.8 °F 51.8 °F 100% 30.12 in 0.2 mi Calm Calm - N/A Fog Fog
10:56 PM 51.1 °F 51.1 °F 100% 30.07 in 0.2 mi Variable 3.5 mph - 0.00 in Fog , Rain Light Rain
11:56 PM 51.1 °F 50.0 °F 96% 30.06 in 0.2 mi NNW 3.5 mph - 0.00 in Fog Fog